Retour au catalogue

FENGYUN 1C DEB

ActifSSO
NORAD 30668·DEBRIS·🇨🇳 China

Lancé May 10, 1999 depuis Taiyuan Satellite Launch Center

Loading…

Prochains Passages (prochaines 24 heures)

TLE

FraisSource: Space-Track

Époque: Sep 13, 2026, 17:50 UTC

1 30668U 99025AQA 26256.74374845  .00001754  00000-0  92308-3 0  9993
2 30668  99.1199 340.0822 0080208 192.3826 299.8378 14.13742386999395

Suivez FENGYUN 1C DEB en temps réel avec AllMySat

Download on the App Store